Location: Antin
(43.3330°N, 0.2804°E)
Time: 17:57:11
(UTC+00:00)

SME Rocket - Pass Details

Date: 17 December 2023
Orbit: 550 x 2645 km, 99.9° (Epoch: 20 February)

Event Time Altitude Azimuth Distance (km) Brightness Sun altitude
Rises 16:57:35 0° 116° (ESE) 4,027 6.8 -6.1°
Reaches altitude 10° 17:00:12 10° 105° (ESE) 3,320 6.3 -6.5°
Maximum altitude 17:06:51 30° 48° (NE) 2,679 5.8 -7.6°
Drops below altitude 10° 17:15:56 10° 355° (N) 4,654 7.3 -9.1°
Sets 17:20:18 0° 347° (NNW) 5,928 8.0 -9.9°
